Back to catalog

TITAN 3C TRANSTAGE DEB

LostMEO
NORAD 43449·DEBRIS·🇺🇸 United States

Launched Feb 9, 1969 from Cape Canaveral Space Force Station

Loading…

Next Passes (next 24 hours)

TLE

StaleSource: Space-Track

Epoch: Aug 4, 2026, 07:44 UTC

1 43449U 69013J   26216.32290084 -.00000164  00000-0  00000-0 0  9990
2 43449   1.5540  72.8105 0148464  69.8901 291.9254  0.96604663 29300

Track TITAN 3C TRANSTAGE DEB in real time with AllMySat

Download on the App Store